KA5FVT Weather Reports


Display with metric or nautical units.
time (UTC)temp
F
wind
direction
speed
MPH
gust
MPH
rain 1hr
in
rain 24hr
in
rain mn
in
humidity
%
barometer
mb
20260904155956 87 227 0.0 0.0 0.00 0.15 0.00 79 1014.3
20260904155456 87 227 0.0 0.0 0.00 0.15 0.00 77 1014.2
20260904154958 87 227 0.0 0.0 0.00 0.15 0.00 79 1014.1
20260904154456 87 227 0.0 0.0 0.00 0.15 0.00 82 1014.0
20260904153955 86 227 0.0 0.0 0.00 0.15 0.00 80 1014.1
20260904153459 86 227 0.0 0.0 0.00 0.15 0.00 81 1014.1
20260904152955 86 227 0.0 0.0 0.00 0.15 0.00 83 1014.2
20260904152456 85 227 0.0 0.0 0.00 0.15 0.00 87 1014.0
20260904151956 85 227 0.0 0.0 0.00 0.15 0.00 87 1014.0
20260904151459 85 227 0.0 0.0 0.00 0.15 0.00 88 1014.0
20260904150956 84 228 0.0 0.0 0.00 0.15 0.00 87 1014.1
20260904150456 84 228 0.0 0.0 0.00 0.15 0.00 89 1014.1
20260904145956 84 228 0.0 0.0 0.00 0.15 0.00 89 1014.0
20260904145455 83 228 0.0 0.0 0.00 0.15 0.00 90 1014.0
20260904144956 83 228 0.0 0.0 0.00 0.15 0.00 90 1014.1
20260904144456 83 229 0.0 0.0 0.00 0.15 0.00 91 1014.2
20260904143955 83 229 0.0 0.0 0.00 0.15 0.00 91 1014.1
20260904143456 83 229 0.0 0.0 0.00 0.15 0.00 92 1014.0
20260904142955 82 229 0.0 0.0 0.00 0.15 0.00 92 1014.0
20260904142455 82 229 0.0 0.0 0.00 0.15 0.00 92 1013.9
20260904141955 82 229 0.0 0.0 0.00 0.15 0.00 93 1013.9
20260904141456 81 229 0.0 0.0 0.00 0.15 0.00 94 1013.9
20260904140955 81 229 0.0 0.0 0.00 0.15 0.00 95 1014.0
20260904140456 81 229 0.0 0.0 0.00 0.15 0.00 95 1014.0
20260904135956 80 229 0.0 0.0 0.00 0.15 0.00 95 1014.0
20260904135456 80 229 0.0 0.0 0.00 0.15 0.00 96 1013.9
20260904134955 80 229 0.0 0.0 0.00 0.15 0.00 96 1013.8
20260904134459 80 229 0.0 0.0 0.00 0.15 0.00 96 1013.7
20260904133956 80 229 0.0 0.0 0.00 0.15 0.00 96 1013.9
20260904133455 80 229 0.0 0.0 0.00 0.15 0.00 96 1013.9
20260904132959 79 229 0.0 0.0 0.00 0.15 0.00 96 1013.8
20260904132456 79 229 0.0 0.0 0.00 0.15 0.00 96 1013.7
20260904131958 79 229 0.0 0.0 0.00 0.15 0.00 96 1013.7
20260904131455 79 229 0.0 0.0 0.00 0.15 0.00 96 1013.7
20260904130958 79 229 0.0 0.0 0.00 0.15 0.00 96 1013.6
20260904130455 79 229 0.0 0.0 0.00 0.15 0.00 95 1013.7
20260904125956 79 229 0.0 0.0 0.00 0.15 0.00 95 1013.6
20260904125456 79 229 0.0 0.0 0.00 0.15 0.00 95 1013.6
20260904124956 79 229 0.0 0.0 0.00 0.15 0.00 95 1013.3
20260904124455 79 229 0.0 0.0 0.00 0.15 0.00 95 1013.4
20260904123959 79 229 0.0 0.0 0.00 0.15 0.00 95 1013.2
20260904123456 79 229 0.0 0.0 0.00 0.15 0.00 95 1013.2
20260904122959 79 229 0.0 0.0 0.00 0.15 0.00 95 1013.2
20260904122455 79 229 0.0 0.0 0.00 0.15 0.00 95 1013.1
20260904121956 79 229 0.0 0.0 0.00 0.15 0.00 95 1013.0
20260904121456 79 229 0.0 0.0 0.00 0.15 0.00 95 1013.0
20260904120955 79 229 0.0 0.0 0.00 0.15 0.00 95 1013.0
20260904120456 79 229 0.0 0.0 0.00 0.15 0.00 95 1012.9
20260904115955 79 229 0.0 0.0 0.00 0.15 0.00 95 1012.8
20260904115455 79 229 0.0 0.0 0.00 0.15 0.00 95 1012.9
20260904114956 79 229 0.0 0.0 0.00 0.15 0.00 95 1012.9
20260904114456 80 229 0.0 0.0 0.00 0.15 0.00 95 1012.8
20260904113956 79 229 0.0 0.0 0.00 0.15 0.00 95 1012.7
20260904113455 79 229 0.0 0.0 0.00 0.15 0.00 95 1012.7
20260904112959 79 229 0.0 0.0 0.00 0.15 0.00 95 1012.8
20260904112455 79 229 0.0 0.0 0.00 0.15 0.00 95 1012.8
20260904111956 80 229 0.0 0.0 0.00 0.15 0.00 95 1012.8
20260904111456 80 229 0.0 0.0 0.00 0.15 0.00 95 1012.8
20260904110956 80 229 0.0 0.0 0.01 0.15 0.00 95 1012.8
20260904110456 80 229 0.0 0.0 0.01 0.15 0.00 95 1012.8
20260904105955 80 229 0.0 0.0 0.01 0.15 0.00 95 1012.7
20260904105455 80 229 0.0 0.0 0.01 0.15 0.00 95 1012.7
20260904104955 80 229 0.0 0.0 0.01 0.15 0.00 95 1012.7
20260904104458 80 229 0.0 0.0 0.01 0.15 0.00 95 1012.6
20260904103955 80 229 0.0 0.0 0.01 0.15 0.00 95 1012.4
20260904103456 80 229 0.0 0.0 0.01 0.15 0.00 95 1012.6
20260904102955 80 229 0.0 0.0 0.01 0.15 0.00 95 1012.4
20260904102456 80 229 0.0 0.0 0.01 0.15 0.00 95 1012.4
20260904101956 80 229 0.0 0.0 0.01 0.15 0.00 95 1012.5
20260904101455 80 229 0.0 0.0 0.01 0.15 0.00 95 1012.3
20260904100955 80 229 0.0 0.0 0.00 0.14 0.00 94 1012.3
20260904100455 80 229 0.0 0.0 0.00 0.14 0.00 94 1012.3
20260904095956 80 229 0.0 0.0 0.00 0.14 0.00 94 1012.3
20260904095456 80 229 0.0 0.0 0.00 0.14 0.00 94 1012.3
20260904094956 80 229 0.0 0.0 0.00 0.14 0.00 95 1012.3
20260904094455 80 229 0.0 0.0 0.00 0.14 0.00 94 1012.4
20260904093958 80 229 0.0 0.0 0.00 0.14 0.00 94 1012.4
20260904093458 80 229 0.0 0.0 0.00 0.14 0.00 94 1012.3
20260904092956 80 229 0.0 0.0 0.00 0.14 0.00 94 1012.2
20260904092456 80 229 0.0 0.0 0.00 0.14 0.00 94 1012.0
20260904091956 80 229 0.0 0.0 0.00 0.14 0.00 94 1012.1
20260904091456 80 229 0.0 0.0 0.00 0.14 0.00 94 1012.2
20260904090955 80 229 0.0 0.0 0.00 0.14 0.00 94 1012.2
20260904090458 80 229 0.0 0.0 0.00 0.14 0.00 94 1012.1
20260904085955 80 229 0.0 0.0 0.00 0.14 0.00 94 1012.3
20260904085455 80 229 0.0 0.0 0.00 0.14 0.00 94 1012.2
20260904084959 80 229 0.0 0.0 0.00 0.14 0.00 94 1012.4
20260904084455 80 229 0.0 0.0 0.00 0.14 0.00 94 1012.3
20260904083955 80 229 0.0 0.0 0.00 0.14 0.00 94 1012.3
20260904083455 80 229 0.0 0.0 0.00 0.14 0.00 94 1012.3
20260904082958 80 229 0.0 0.0 0.00 0.14 0.00 94 1012.3
20260904082455 80 229 0.0 0.0 0.00 0.14 0.00 94 1012.3
20260904081956 80 229 0.0 0.0 0.00 0.14 0.00 94 1012.2
20260904081456 80 229 0.0 0.0 0.00 0.14 0.00 94 1012.3
20260904080956 80 229 0.0 0.0 0.00 0.14 0.00 94 1012.3
20260904080455 80 229 0.0 0.0 0.00 0.14 0.00 94 1012.3
20260904075956 80 229 0.0 0.0 0.00 0.14 0.00 94 1012.3
20260904075455 80 229 0.0 0.0 0.00 0.14 0.00 94 1012.4
20260904074956 80 229 0.0 0.0 0.00 0.14 0.00 94 1012.6
20260904074455 80 229 0.0 0.0 0.00 0.14 0.00 94 1012.6
20260904073956 80 229 0.0 0.0 0.00 0.14 0.00 94 1012.5
20260904073456 80 229 0.0 0.0 0.00 0.14 0.00 94 1012.5
20260904072955 80 229 0.0 0.0 0.00 0.14 0.00 94 1012.5
20260904072455 80 229 0.0 0.0 0.00 0.14 0.00 93 1012.4
20260904071956 80 229 0.0 0.0 0.00 0.14 0.00 93 1012.4
20260904071455 80 229 0.0 0.0 0.00 0.14 0.00 93 1012.5
20260904070955 80 229 0.0 0.0 0.00 0.14 0.00 93 1012.5
20260904070456 80 229 0.0 0.0 0.00 0.14 0.00 93 1012.4
20260904065955 80 229 0.0 0.0 0.00 0.14 0.00 94 1012.4
20260904065455 80 229 0.0 0.0 0.00 0.14 0.00 94 1012.6
20260904064956 80 229 0.0 0.0 0.00 0.14 0.00 93 1012.7
20260904064455 80 229 0.0 0.0 0.00 0.14 0.00 94 1012.6
20260904063955 80 229 0.0 0.0 0.00 0.14 0.00 94 1012.5
20260904063456 80 229 0.0 0.0 0.00 0.14 0.00 94 1012.6
20260904062956 80 229 0.0 0.0 0.00 0.14 0.00 93 1012.7
20260904062455 80 229 0.0 0.0 0.00 0.14 0.00 93 1012.7
20260904061955 80 229 0.0 0.0 0.00 0.14 0.00 93 1012.6
20260904061459 80 229 0.0 0.0 0.00 0.14 0.00 93 1012.9
20260904060955 80 229 0.0 0.0 0.00 0.14 0.00 93 1012.8
20260904060455 80 229 0.0 0.0 0.00 0.14 0.00 93 1012.8
20260904055955 80 229 0.0 0.0 0.00 0.14 0.00 93 1012.8
20260904055456 80 229 0.0 0.0 0.00 0.14 0.00 93 1012.8
20260904054955 80 229 0.0 0.0 0.00 0.14 0.00 93 1012.8
20260904054455 80 229 0.0 0.0 0.00 0.14 0.00 93 1012.8
20260904053955 80 229 0.0 0.0 0.00 0.14 0.00 93 1012.8
20260904053455 80 229 0.0 0.0 0.00 0.14 0.00 93 1012.8
20260904052955 80 229 0.0 0.0 0.00 0.14 0.00 93 1012.8
20260904052455 80 229 0.0 0.0 0.00 0.14 0.00 93 1012.7
20260904051956 80 229 0.0 0.0 0.00 0.14 0.00 93 1012.6
20260904051456 80 229 0.0 0.0 0.00 0.14 0.00 93 1012.5
20260904050955 80 229 0.0 0.0 0.00 0.14 0.00 93 1012.6
20260904050455 80 229 0.0 0.0 0.00 0.14 0.00 93 1012.5
20260904045956 80 229 0.0 0.0 0.00 0.14 0.00 93 1012.6
20260904045455 80 229 0.0 0.0 0.00 0.14 0.00 93 1012.7
20260904044956 80 229 0.0 0.0 0.00 0.14 0.00 93 1012.5
20260904044456 80 229 0.0 0.0 0.00 0.14 0.00 93 1012.4
20260904043955 80 229 0.0 0.0 0.00 0.14 0.00 93 1012.7
20260904043458 80 229 0.0 0.0 0.00 0.14 0.00 93 1012.5
20260904042959 80 229 0.0 0.0 0.00 0.14 0.00 93 1012.6
20260904042455 80 229 0.0 0.0 0.00 0.14 0.00 93 1012.6
20260904041955 80 229 0.0 0.0 0.00 0.14 0.00 93 1012.6
20260904041459 80 229 0.0 0.0 0.00 0.14 0.00 93 1012.6
20260904040956 80 229 0.0 0.0 0.00 0.14 0.00 93 1012.5
20260904040458 80 229 0.0 0.0 0.00 0.14 0.00 93 1012.5
20260904035958 80 229 0.0 0.0 0.00 0.14 0.00 93 1012.5
20260904035455 80 229 0.0 0.0 0.00 0.14 0.00 93 1012.5
20260904034955 80 229 0.0 0.0 0.00 0.14 0.00 93 1012.6
20260904034455 80 229 0.0 0.0 0.00 0.14 0.00 93 1012.7
20260904033955 80 229 0.0 0.0 0.00 0.14 0.00 93 1012.7
20260904033456 80 229 0.0 0.0 0.00 0.14 0.00 93 1012.8
20260904032955 80 229 0.0 0.0 0.00 0.14 0.00 94 1012.6
20260904032455 80 229 0.0 0.0 0.00 0.14 0.00 94 1012.7
20260904031955 80 229 0.0 0.0 0.00 0.14 0.00 94 1012.7
20260904031456 80 229 0.0 0.0 0.00 0.14 0.00 93 1012.7
20260904030955 80 229 0.0 0.0 0.00 0.14 0.00 93 1012.7
20260904030456 80 229 0.0 0.0 0.00 0.14 0.00 94 1012.7
20260904025956 80 229 0.0 0.0 0.00 0.14 0.00 93 1012.7
20260904025455 80 229 0.0 0.0 0.00 0.14 0.00 93 1012.6
20260904024955 80 229 0.0 0.0 0.00 0.14 0.00 93 1012.6
20260904024455 80 229 0.0 0.0 0.00 0.14 0.00 93 1012.5
20260904023955 80 229 0.0 0.0 0.00 0.14 0.00 93 1012.4
20260904023456 80 229 0.0 0.0 0.00 0.14 0.00 93 1012.4
20260904022955 80 229 0.0 0.0 0.00 0.14 0.00 93 1012.3
20260904022455 80 229 0.0 0.0 0.00 0.14 0.00 93 1012.1
20260904021955 80 229 0.0 0.0 0.00 0.14 0.00 93 1012.0
20260904021455 80 229 0.0 0.0 0.00 0.14 0.00 93 1012.0
20260904020956 80 229 0.0 0.0 0.00 0.14 0.00 93 1012.0
20260904020455 80 229 0.0 0.0 0.00 0.14 0.00 93 1012.1
20260904015956 80 229 0.0 0.0 0.00 0.14 0.00 93 1011.9
20260904015455 80 229 0.0 0.0 0.00 0.16 0.00 93 1011.9
20260904014956 80 229 0.0 0.0 0.00 0.20 0.00 93 1011.8
20260904014455 80 229 0.0 0.0 0.00 0.22 0.00 93 1011.9
20260904013955 80 229 0.0 0.0 0.00 0.25 0.00 93 1011.8
20260904013458 80 229 0.0 0.0 0.00 0.29 0.00 93 1011.7
20260904012955 80 229 0.0 0.0 0.00 0.29 0.00 92 1011.9
20260904012459 80 229 0.0 0.0 0.00 0.29 0.00 92 1011.8
20260904011955 80 229 0.0 0.0 0.00 0.29 0.00 92 1011.7
20260904011455 80 229 0.0 0.0 0.00 0.29 0.00 92 1011.7
20260904010955 80 229 0.0 0.0 0.00 0.29 0.00 92 1011.7
20260904010458 80 229 0.0 0.0 0.00 0.29 0.00 92 1011.7
20260904005958 80 229 0.0 0.0 0.00 0.29 0.00 91 1011.6
20260904005458 80 229 0.0 0.0 0.00 0.29 0.00 91 1011.5
20260904004956 80 229 0.0 0.0 0.00 0.29 0.00 91 1011.5
20260904004456 80 229 0.0 0.0 0.00 0.29 0.00 91 1011.7
20260904003955 80 229 0.0 0.0 0.00 0.29 0.00 91 1011.7
20260904003455 80 229 0.0 0.0 0.00 0.29 0.00 91 1011.7
20260904002955 80 229 0.0 0.0 0.00 0.29 0.00 92 1011.7
20260904002455 80 229 0.0 0.0 0.00 0.29 0.00 92 1011.8
20260904001955 80 229 0.0 0.0 0.00 0.29 0.00 92 1011.9
20260904001456 80 229 0.0 0.0 0.00 0.29 0.00 91 1011.9
20260904000958 80 229 0.0 0.0 0.00 0.29 0.00 92 1012.0
20260904000455 80 229 0.0 0.0 0.00 0.29 0.00 92 1012.1
20260903235956 80 229 0.0 0.0 0.00 0.29 0.00 92 1012.1
20260903235458 80 229 0.0 0.0 0.00 0.29 0.00 92 1012.0
20260903234955 80 229 0.0 0.0 0.00 0.29 0.00 93 1011.9
20260903234455 80 229 0.0 0.0 0.00 0.29 0.00 93 1011.9
20260903233956 80 229 0.0 0.0 0.00 0.29 0.00 94 1011.8
20260903233455 80 229 0.0 0.0 0.00 0.29 0.00 94 1012.0
20260903232955 80 229 0.0 0.0 0.00 0.29 0.00 94 1012.0
20260903232456 79 229 0.0 0.0 0.00 0.29 0.00 94 1012.0
20260903231955 79 229 0.0 0.0 0.00 0.29 0.00 93 1012.2
20260903231455 79 229 0.0 0.0 0.00 0.29 0.00 93 1012.0
20260903230958 79 229 0.0 0.0 0.00 0.29 0.00 93 1012.1
20260903230456 79 229 0.0 0.0 0.00 0.29 0.00 93 1012.2
20260903225955 79 229 0.0 0.0 0.00 0.29 0.00 93 1012.2
20260903225455 79 229 0.0 0.0 0.00 0.29 0.00 93 1012.2
20260903224955 79 229 0.0 1.0 0.00 0.29 0.00 93 1012.1
20260903224455 79 229 0.0 1.0 0.00 0.29 0.00 93 1012.1
20260903223955 79 229 0.0 1.0 0.00 0.29 0.00 93 1012.1
20260903223455 79 229 0.0 0.0 0.00 0.29 0.00 94 1012.0
20260903222956 79 229 0.0 0.0 0.00 0.29 0.00 94 1012.1
20260903222455 79 229 0.0 1.0 0.00 0.29 0.00 93 1012.1
20260903221955 79 229 0.0 0.0 0.00 0.29 0.00 94 1012.2
20260903221459 79 229 0.0 0.0 0.00 0.29 0.00 93 1012.2
20260903220955 78 229 0.0 0.0 0.00 0.29 0.00 93 1012.3
20260903220455 78 229 0.0 0.0 0.00 0.29 0.00 93 1012.5
20260903215955 79 229 0.0 1.0 0.00 0.29 0.00 94 1012.6
20260903215456 79 229 0.0 0.0 0.00 0.29 0.00 94 1012.7
20260903214955 78 229 0.0 1.0 0.00 0.29 0.00 94 1012.7
20260903214458 78 230 0.0 0.0 0.00 0.29 0.00 94 1012.7
20260903213955 78 230 0.0 0.0 0.01 0.29 0.00 94 1012.7
20260903213455 78 230 0.0 0.0 0.01 0.29 0.00 95 1012.7
20260903212956 78 230 0.0 0.0 0.01 0.29 0.00 95 1012.8
20260903212455 78 230 0.0 0.0 0.01 0.29 0.00 94 1012.8
20260903211956 78 230 0.0 0.0 0.01 0.29 0.00 94 1013.0
20260903211455 78 230 0.0 0.0 0.02 0.29 0.00 94 1012.9
20260903210956 78 230 0.0 0.0 0.02 0.29 0.00 94 1013.1
20260903210459 78 230 0.0 0.0 0.02 0.29 0.00 94 1013.1
20260903205955 78 230 0.0 0.0 0.03 0.29 0.00 93 1013.0
20260903205456 78 230 0.0 0.0 0.04 0.29 0.00 93 1013.2
20260903204955 78 230 0.0 0.0 0.04 0.29 0.00 94 1013.2
20260903204456 78 230 0.0 0.0 0.04 0.29 0.00 93 1013.2
20260903203955 78 230 0.0 0.0 0.03 0.28 0.00 93 1013.3
20260903203456 78 230 0.0 0.0 0.03 0.28 0.00 94 1013.3
20260903202956 78 230 0.0 0.0 0.03 0.28 0.00 93 1013.3
20260903202500 78 230 0.0 0.0 0.03 0.28 0.00 93 1013.4
20260903201955 78 230 0.0 0.0 0.03 0.28 0.00 93 1013.4
20260903201455 78 230 0.0 0.0 0.02 0.27 0.00 94 1013.3
20260903200959 78 230 0.0 0.0 0.03 0.27 0.00 94 1013.3
20260903200455 78 230 0.0 0.0 0.04 0.27 0.00 93 1013.2
20260903195955 78 230 0.0 0.0 0.04 0.26 0.00 93 1013.1
20260903195455 78 230 0.0 0.0 0.05 0.26 0.00 93 1013.4
20260903194958 78 230 0.0 0.0 0.06 0.26 0.00 93 1013.3
20260903194455 78 230 0.0 2.0 0.06 0.26 0.00 93 1013.3
20260903193955 78 157 0.0 0.0 0.06 0.26 0.00 93 1013.4
20260903193456 78 157 0.0 0.0 0.06 0.26 0.00 93 1013.4
20260903192955 78 157 0.0 0.0 0.06 0.26 0.00 93 1013.6
20260903192455 78 157 0.0 0.0 0.06 0.26 0.00 93 1013.8
20260903191956 78 157 0.0 0.0 0.08 0.26 0.00 92 1013.6
20260903191459 78 157 0.0 0.0 0.08 0.26 0.00 92 1013.4
20260903190955 78 157 0.0 0.0 0.07 0.25 0.00 91 1013.7
20260903190455 78 157 0.0 0.0 0.06 0.24 0.00 91 1013.7
20260903185955 78 157 0.0 0.0 0.04 0.22 0.00 91 1014.0
20260903185455 79 157 0.0 0.0 0.04 0.20 0.00 90 1014.1
20260903184955 79 157 0.0 0.0 0.03 0.19 0.00 90 1014.1
20260903184455 79 157 0.0 0.0 0.03 0.19 0.00 90 1014.1
20260903183955 79 157 0.0 0.0 0.03 0.19 0.00 89 1014.1
20260903183455 79 157 0.0 0.0 0.03 0.19 0.00 89 1014.1
20260903182956 79 157 0.0 0.0 0.03 0.19 0.00 88 1014.0
20260903182455 80 157 0.0 0.0 0.03 0.19 0.00 88 1014.0
20260903181959 80 157 0.0 0.0 0.02 0.18 0.00 87 1014.0
20260903181455 81 144 0.0 4.0 0.02 0.18 0.00 86 1013.9
20260903180955 82 195 0.0 1.0 0.02 0.18 0.00 85 1013.9
20260903180457 83 161 0.0 6.0 0.02 0.18 0.00 83 1013.9
20260903180000 85 162 1.0 6.0 0.01 0.17 0.00 81 1014.0
20260903175456 86 108 1.0 2.0 0.00 0.16 0.00 82 1014.1
20260903174958 86 150 0.0 2.0 0.00 0.16 0.00 81 1014.2
20260903174455 87 59 0.0 2.0 0.00 0.16 0.00 81 1014.2
20260903173955 87 295 0.0 0.0 0.00 0.16 0.00 80 1014.0
20260903173455 87 296 0.0 0.0 0.00 0.16 0.00 79 1014.2
20260903172955 87 295 0.0 0.0 0.00 0.16 0.00 79 1014.1
20260903172456 87 295 0.0 0.0 0.00 0.16 0.00 79 1014.1
20260903171955 87 295 0.0 1.0 0.00 0.16 0.00 79 1013.9
20260903171455 88 295 0.0 1.0 0.00 0.16 0.00 78 1013.6
20260903170955 88 295 0.0 0.0 0.00 0.16 0.00 79 1013.8
20260903170456 88 295 0.0 1.0 0.00 0.16 0.00 78 1014.0
20260903165956 88 295 0.0 0.0 0.00 0.16 0.00 78 1013.9
20260903165455 88 295 0.0 1.0 0.00 0.16 0.00 78 1013.9
20260903164955 88 295 0.0 1.0 0.00 0.16 0.00 77 1014.0
20260903164458 88 295 1.0 1.0 0.00 0.16 0.00 78 1014.0
20260903163955 87 296 0.0 0.0 0.00 0.16 0.00 77 1014.0
20260903163455 87 296 0.0 0.0 0.00 0.16 0.00 78 1014.0
20260903162956 87 296 0.0 1.0 0.00 0.16 0.00 79 1013.9
20260903162455 87 295 0.0 1.0 0.00 0.16 0.00 79 1014.0
20260903161955 87 296 0.0 1.0 0.00 0.16 0.00 78 1014.0
20260903161455 87 295 0.0 1.0 0.00 0.16 0.00 79 1013.9
20260903160955 87 295 0.0 2.0 0.00 0.16 0.00 80 1013.9
20260903160458 86 295 0.0 1.0 0.00 0.16 0.00 81 1013.9